Location: Zagreb
(45.8000°N, 16.0000°E)
Time: 01:26:07
(UTC+01:00)

NUDT-PHONESAT - Pass Details

Date: 01 November 2020
Orbit: 481 x 500 km, 97.4° (Epoch: 30 November)

Event Time Altitude Azimuth Distance (km) Brightness Sun altitude
Rises 05:38:30 0° 30° (NNE) 2,589 ? -10.6°
Reaches altitude 10° 05:41:16 10° 53° (NE) 1,695 ? -10.1°
Maximum altitude 05:43:33 16° 92° (E) 1,365 ? -9.7°
Drops below altitude 10° 05:45:49 10° 131° (SE) 1,678 ? -9.3°
Sets 05:48:31 0° 154° (SSE) 2,547 ? -8.9°
